Location: Praha
(50.0830°N, 14.4670°E)
Time: 05:00:08
(UTC+02:00)

ISS - Pass Details

Date: 13 July 2024
Orbit: 409 x 423 km, 51.6° (Epoch: 24 July)

Event Time Altitude Azimuth Distance (km) Brightness Sun altitude
Rises 02:14:32 0° 287° (WNW) 2,343 0.1 -16.6°
Reaches altitude 10° 02:16:39 10° 282° (WNW) 1,481 -1.0 -16.5°
Maximum altitude 02:19:52 48° 207° (SSW) 545 -3.7 -16.4°
Enters shadow 02:20:30 41° 169° (S) 609 -3.4 -16.4°
